Location: Ertinghausen
(51.6624°N, 9.7874°E)
Time: 10:22:39
(UTC+00:00)

Cosmos 1908 Rocket - Pass Details

Date: 23 May 2024
Orbit: 602 x 629 km, 82.5° (Epoch: 23 June)

Event Time Altitude Azimuth Distance (km) Brightness Sun altitude
Rises 00:12:42 0° 352° (N) 2,927 8.3 -16.7°
Reaches altitude 10° 00:15:00 10° 357° (N) 2,011 7.4 -16.6°
Maximum altitude 00:19:22 53° 75° (ENE) 774 4.2 -16.4°
Enters shadow 00:22:29 18° 147° (SSE) 1,533 5.2 -16.3°
